FW7361 Weather Reports


Display with metric or nautical units.
time (UTC)temp
F
wind
direction
speed
MPH
gust
MPH
rain 1hr
in
rain 24hr
in
rain mn
in
humidity
%
barometer
mb
20260505083108 37 360 0.0 0.0 0.00 0.00 0.00 84 1012.8
20260505081604 37 0 0.0 2.0 0.00 0.00 0.00 84 1012.9
20260505080105 37 0 1.0 3.0 0.00 0.00 0.00 83 1013.0
20260505074555 38 360 2.0 4.0 0.00 0.00 0.00 84 1013.1
20260505073102 38 360 0.0 2.0 0.00 0.00 0.00 83 1013.1
20260505071613 38 0 0.0 2.0 0.00 0.00 0.00 83 1013.1
20260505070057 38 360 1.0 5.0 0.00 0.00 0.00 84 1013.1
20260505064600 38 360 3.0 5.0 0.00 0.00 0.00 84 1012.9
20260505063100 38 360 4.0 8.0 0.00 0.00 0.00 85 1013.1
20260505061559 38 360 4.0 8.0 0.00 0.00 0.00 84 1013.1
20260505060104 38 360 6.0 9.0 0.00 0.00 0.00 82 1012.9
20260505054601 39 360 6.0 9.0 0.00 0.00 0.00 82 1012.9
20260505053058 39 360 5.0 9.0 0.00 0.00 0.00 81 1013.3
20260505051553 39 360 7.0 13.0 0.00 0.00 0.00 77 1013.3
20260505041603 43 360 10.0 14.0 0.00 0.00 0.00 62 1012.9
20260505040058 44 360 7.0 11.0 0.00 0.00 0.00 58 1012.8
20260505034555 44 360 8.0 13.0 0.00 0.00 0.00 58 1012.7
20260505033056 44 360 11.0 16.0 0.00 0.00 0.00 56 1012.5
20260505031555 44 360 12.0 16.0 0.00 0.00 0.00 55 1012.2
20260505030126 44 360 11.0 15.0 0.00 0.00 0.00 55 1012.0
20260505024559 45 360 10.0 17.0 0.00 0.00 0.00 55 1011.7
20260505023056 45 360 13.0 17.0 0.00 0.00 0.00 54 1011.6
20260505021556 45 360 12.0 19.0 0.00 0.00 0.00 54 1011.2
20260505014611 46 360 13.0 18.0 0.00 0.00 0.00 52 1011.0
20260505013107 47 360 16.0 24.0 0.00 0.00 0.00 52 1010.7
20260505011558 49 360 15.0 22.0 0.00 0.00 0.00 50 1010.5
20260505010116 50 360 16.0 24.0 0.00 0.00 0.00 50 1010.2
20260505004556 52 360 14.0 24.0 0.00 0.00 0.00 47 1009.9
20260505003058 53 360 13.0 23.0 0.00 0.00 0.00 48 1009.8
20260505001557 54 360 14.0 23.0 0.00 0.00 0.00 47 1009.7
20260504234553 55 360 12.0 18.0 0.00 0.00 0.00 46 1009.6
20260504233059 55 360 8.0 17.0 0.00 0.00 0.00 45 1009.6
20260504231555 56 360 10.0 19.0 0.00 0.00 0.00 44 1009.6
20260504230057 56 360 8.0 17.0 0.00 0.00 0.00 44 1009.1
20260504224556 57 360 12.0 19.0 0.00 0.00 0.00 43 1009.2
20260504223120 57 360 8.0 16.0 0.00 0.00 0.00 44 1009.0
20260504221600 56 360 9.0 19.0 0.00 0.00 0.00 43 1009.0
20260504220058 56 360 12.0 20.0 0.00 0.00 0.00 44 1009.1
20260504214557 58 360 11.0 20.0 0.00 0.00 0.00 42 1008.9
20260504213056 57 360 10.0 19.0 0.00 0.00 0.00 43 1009.3
20260504211649 57 360 10.0 17.0 0.00 0.00 0.00 42 1009.6
20260504210058 57 360 8.0 16.0 0.00 0.00 0.00 42 1009.7
20260504204558 57 360 11.0 17.0 0.00 0.00 0.00 44 1009.9
20260504203108 57 360 7.0 13.0 0.00 0.00 0.00 43 1010.1
20260504201611 56 360 5.0 15.0 0.00 0.00 0.00 44 1009.9
20260504200057 56 360 10.0 17.0 0.00 0.00 0.00 43 1010.1
20260504194558 57 360 12.0 16.0 0.00 0.00 0.00 45 1010.3
20260504193107 56 360 5.0 14.0 0.00 0.00 0.00 46 1010.6
20260504191610 54 360 6.0 13.0 0.00 0.00 0.00 44 1011.0
20260504190106 55 360 12.0 23.0 0.00 0.00 0.00 44 1011.0
20260504184556 55 360 9.0 18.0 0.00 0.00 0.00 45 1011.0
20260504183056 53 360 11.0 18.0 0.00 0.00 0.00 46 1011.4
20260504181603 54 360 8.0 18.0 0.00 0.00 0.00 44 1011.4
20260504180057 53 360 11.0 18.0 0.00 0.00 0.00 45 1011.6
20260504174554 53 360 11.0 18.0 0.00 0.00 0.00 46 1011.7
20260504173057 52 360 9.0 18.0 0.00 0.00 0.00 46 1011.8
20260504171556 51 360 12.0 21.0 0.00 0.00 0.00 47 1011.9